Time,TemperatureF,DewpointF,PressureIn,WindDirection,WindDirectionDegrees,WindSpeedMPH,WindSpeedGustMPH,Humidity,HourlyPrecipIn,Conditions,Clouds,dailyrainin,SolarRadiationWatts/m^2,SoftwareType,DateUTC
2014-12-25 00:02:00,54.3,54.0,29.47,West,267,3.0,10.0,99,0.00,,,0.60,0.0,meteohub,2014-12-25 05:02:00,
2014-12-25 00:07:00,54.5,54.1,29.45,East,82,0.0,10.0,99,0.00,,,0.00,0.0,meteohub,2014-12-25 05:07:00,
2014-12-25 00:12:00,54.7,54.3,29.45,WSW,242,0.0,6.0,99,0.00,,,0.00,0.0,meteohub,2014-12-25 05:12:00,
2014-12-25 00:17:00,54.7,54.3,29.45,SW,229,2.0,5.0,99,0.00,,,0.00,0.0,meteohub,2014-12-25 05:17:00,
2014-12-25 00:22:00,54.5,54.0,29.46,WSW,244,2.0,7.0,98,0.00,,,0.00,0.0,meteohub,2014-12-25 05:22:00,
2014-12-25 00:27:00,54.5,54.0,29.46,South,177,1.0,7.0,98,0.00,,,0.00,0.0,meteohub,2014-12-25 05:27:00,
2014-12-25 00:32:00,54.5,54.0,29.46,WSW,245,1.0,7.0,98,0.00,,,0.00,0.0,meteohub,2014-12-25 05:32:00,
2014-12-25 00:37:00,54.5,54.0,29.45,SSW,202,3.0,6.0,98,0.00,,,0.00,0.0,meteohub,2014-12-25 05:37:00,
2014-12-25 00:42:00,54.5,54.0,29.45,South,190,2.0,6.0,98,0.00,,,0.00,0.0,meteohub,2014-12-25 05:42:00,
2014-12-25 00:47:00,54.3,53.8,29.44,WSW,252,0.0,9.0,98,0.00,,,0.00,0.0,meteohub,2014-12-25 05:47:00,
2014-12-25 00:52:00,54.1,53.6,29.44,South,186,0.0,9.0,98,0.00,,,0.00,0.0,meteohub,2014-12-25 05:52:00,
2014-12-25 00:57:00,54.0,53.4,29.44,SSW,209,0.0,9.0,98,0.00,,,0.00,0.0,meteohub,2014-12-25 05:57:00,
2014-12-25 01:02:00,53.8,53.2,29.44,SW,233,9.0,9.0,98,0.00,,,0.00,0.0,meteohub,2014-12-25 06:02:00,
2014-12-25 01:07:00,53.8,53.2,29.44,SSW,200,0.0,9.0,98,0.00,,,0.00,0.0,meteohub,2014-12-25 06:07:00,
2014-12-25 01:12:00,53.4,52.9,29.44,East,99,0.0,9.0,98,0.00,,,0.00,0.0,meteohub,2014-12-25 06:12:00,
2014-12-25 01:17:00,53.4,52.9,29.44,SE,131,1.0,9.0,98,0.00,,,0.00,0.0,meteohub,2014-12-25 06:17:00,
2014-12-25 01:22:00,53.2,52.7,29.44,SW,234,0.0,5.0,98,0.00,,,0.00,0.0,meteohub,2014-12-25 06:22:00,
2014-12-25 01:27:00,53.2,52.7,29.44,East,98,1.0,4.0,98,0.00,,,0.00,0.0,meteohub,2014-12-25 06:27:00,
2014-12-25 01:32:00,53.1,52.5,29.44,WSW,247,3.0,4.0,98,0.00,,,0.00,0.0,meteohub,2014-12-25 06:32:00,
2014-12-25 01:37:00,53.1,52.5,29.44,SW,217,0.0,4.0,98,0.00,,,0.00,0.0,meteohub,2014-12-25 06:37:00,
2014-12-25 01:42:00,53.1,52.5,29.44,SW,230,0.0,4.0,98,0.00,,,0.00,0.0,meteohub,2014-12-25 06:42:00,
2014-12-25 01:47:00,53.1,52.5,29.46,SW,232,0.0,5.0,98,0.00,,,0.00,0.0,meteohub,2014-12-25 06:47:00,
2014-12-25 01:52:00,53.1,52.5,29.45,SSW,199,2.0,5.0,98,0.00,,,0.00,0.0,meteohub,2014-12-25 06:52:00,
2014-12-25 01:57:00,53.1,52.7,29.45,East,88,0.0,5.0,99,0.00,,,0.00,0.0,meteohub,2014-12-25 06:57:00,
2014-12-25 02:02:00,53.2,52.9,29.44,SSW,192,0.0,6.0,99,0.01,,,0.01,0.0,meteohub,2014-12-25 07:02:00,
2014-12-25 02:07:00,53.4,53.1,29.45,SW,219,3.0,6.0,99,0.01,,,0.01,0.0,meteohub,2014-12-25 07:07:00,
2014-12-25 02:12:00,54.0,53.6,29.45,West,277,1.0,6.0,99,0.01,,,0.01,0.0,meteohub,2014-12-25 07:12:00,